Location: Newark
(41.0400°S, 62.7845°W)
Time: 09:14:12
(UTC+00:00)

Transit 2A - Pass Details

Date: 07 December 2021
Orbit: 591 x 967 km, 66.7° (Epoch: 19 January)

Event Time Altitude Azimuth Distance (km) Brightness Sun altitude
Rises 16:14:05 0° 303° (WNW) 3,171 9.4 71.5°
Reaches altitude 10° 16:16:50 10° 291° (WNW) 2,190 8.7 71.4°
Maximum altitude 16:21:05 28° 232° (SW) 1,254 7.5 71.2°
Drops below altitude 10° 16:25:04 10° 172° (S) 2,043 8.2 71.1°
Sets 16:27:34 0° 159° (SSE) 2,920 8.8 70.9°
